Lid_Strength_Index
2 2 2 2 2 3 4 5 5 4 5 4 5 5 4 4 3 6 7 6 8 10 8 7 7 10 10 9 10 10 8 8 9 11 12 12 13 12 13 12 13 14 15 15 14 15 16 8 8 13 10 7 7 7
2 2 2 2 2 2 3 4 4 4 4 5 5 5 4 4 3 4 8 5 4 9 8 7 7 7 7 7 8 9 10 9 8 10 10 10 12 11 13 15 9 14 12 13 13 14 9 7 8 6 6 7 7 7
2 2 2 2 2 3 3 4 4 4 4 5 5 5 5 5 4 5 9 8 6 7 7 8 8 6 5 7 6 8 7 7 8 7 9 10 12 10 13 13 12 10 9 12 11 10 9 7 6 6 6 6 5 5
1 2 2 2 3 3 3 4 3 4 4 4 5 4 5 5 4 6 10 8 7 7 9 7 4 6 4 5 5 5 5 6 6 6 9 10 11 8 11 10 11 9 9 11 11 9 8 7 6 6 5 5 5 5
1 1 2 2 3 3 3 3 4 4 4 4 5 5 5 5 5 7 10 8 6 7 9 8 6 5 6 4 5 5 5 6 7 8 9 10 8 9 9 10 11 9 10 11 12 8 9 8 6 5 5 5 5 5
1 1 2 2 2 2 3 4 4 4 4 4 4 5 5 5 5 9 8 7 8 8 8 10 6 6 6 5 4 5 6 6 6 8 9 9 7 8 10 11 8 7 7 7 8 6 6 5 5 4 5 5 4 4
1 1 1 2 2 3 3 4 4 4 4 4 4 5 5 5 8 10 8 6 6 8 8 9 9 6 5 5 6 7 6 7 8 9 9 9 9 7 10 11 8 7 6 6 5 6 7 6 6 4 4 4 4 3
-0 0 1 2 2 3 3 4 4 4 4 4 4 5 5 5 6 10 8 5 7 7 7 11 9 8 6 8 8 7 8 7 7 9 9 10 9 8 11 9 7 6 6 6 5 5 5 5 4 4 4 4 5 5
0 0 0 1 2 3 3 3 4 4 4 4 5 5 8 9 9 6 2 4 6 6 9 9 12 11 6 8 7 7 8 10 8 9 9 9 11 11 9 8 8 6 6 7 5 5 5 5 5 5 5 4 5 5
-1 -0 -0 -0 2 3 3 3 4 4 4 5 8 10 10 7 2 4 7 8 8 8 8 10 9 10 7 8 9 9 9 10 11 9 8 10 11 8 7 6 7 7 7 5 7 7 7 7 6 6 5 4 4 4
-1 -1 -0 -0 2 3 3 3 4 5 6 10 11 10 6 2 7 7 8 9 10 10 10 10 10 10 8 9 9 8 9 10 12 10 10 11 12 9 6 6 5 5 5 5 5 6 6 5 5 5 5 4 4 4
-1 -0 -0 -0 2 3 4 4 4 7 9 9 8 8 7 7 8 9 10 9 10 10 8 10 9 9 8 7 8 8 10 9 12 9 10 13 10 7 6 6 5 5 4 4 4 4 5 4 4 4 4 4 4 4
-0 -0 -0 1 2 3 4 4 4 4 6 6 8 8 9 9 13 11 12 10 11 8 7 8 9 7 8 7 8 9 10 11 8 11 12 11 8 6 6 5 5 4 4 4 4 4 3 3 3 4 4 4 4 4
0 0 1 1 3 3 3 4 4 5 7 8 9 14 12 12 11 11 10 10 8 8 8 8 8 9 8 9 9 10 9 9 12 14 13 10 8 7 7 5 5 5 4 4 4 4 4 4 4 3 3 3 3 4
1 2 1 2 2 3 3 3 4 6 8 8 8 13 11 9 9 9 8 7 6 6 7 7 7 8 9 9 8 9 11 12 12 13 10 8 7 6 6 5 5 5 5 5 4 4 4 4 4 4 3 3 3 3
1 2 3 2 3 3 4 4 5 6 6 7 8 9 10 10 10 9 8 8 6 6 7 7 9 10 10 10 10 11 11 13 12 9 8 7 7 7 6 5 5 4 4 5 4 4 4 4 4 4 4 3 3 3
2 4 2 3 3 4 4 5 5 7 7 7 9 7 9 8 8 7 7 7 6 7 9 8 11 11 8 11 12 10 12 10 8 7 7 6 6 6 5 4 4 4 4 4 4 4 3 4 4 4 4 4 4 3
4 3 2 3 4 5 6 6 7 7 8 9 10 9 7 6 7 7 6 6 6 7 8 9 8 11 12 12 12 9 8 7 7 7 6 6 6 5 4 5 4 4 4 5 4 5 4 4 5 5 4 3 3 3
3 3 3 3 4 5 7 7 6 9 9 9 8 7 7 6 6 6 6 6 5 5 6 7 9 11 10 9 9 7 6 6 6 6 6 5 5 5 5 4 4 4 4 5 5 5 4 4 3 4 3 3 4 3
2 2 3 3 3 6 7 8 5 8 9 8 7 8 7 7 6 6 6 6 6 7 8 9 9 8 8 6 5 6 5 5 6 7 6 5 5 5 5 4 4 5 5 5 5 5 4 4 5 4 4 4 5 5
2 3 2 3 4 5 6 7 8 8 7 8 7 8 7 6 7 7 7 6 7 8 8 7 7 6 4 4 4 6 5 5 6 6 6 7 5 5 5 5 5 5 5 5 5 5 5 5 4 4 4 3 3 3
4 2 5 5 7 5 7 6 7 6 7 7 7 6 7 8 8 8 6 7 7 7 6 6 6 5 5 5 4 4 4 5 5 6 7 7 6 5 5 5 4 5 5 5 5 5 5 5 4 4 4 5 6 4
2 3 4 4 7 9 10 5 7 6 9 8 7 9 9 8 7 6 8 8 7 6 5 5 5 4 5 4 4 4 4 5 5 5 6 5 5 5 4 3 4 5 6 5 5 5 5 5 4 4 3 3 2 2
2 5 6 6 7 10 6 8 6 7 8 9 10 11 10 8 7 8 10 8 7 6 5 5 5 5 5 5 6 5 5 5 5 5 5 5 5 4 3 3 3 4 4 3 4 5 5 4 5 4 3 4 3 3
8 9 8 12 7 8 9 9 9 9 10 10 11 10 9 7 10 10 10 8 6 6 5 4 5 5 6 6 6 5 4 3 4 5 3 3 3 4 4 4 4 4 3 4 4 4 4 4 3 3 3 3 4 4
10 7 9 8 8 9 9 10 10 10 9 10 9 8 7 9 10 12 9 7 6 6 6 5 5 6 6 5 5 5 4 2 3 4 4 3 3 3 5 6 6 5 4 3 3 3 3 4 4 4 4 4 5 3
11 9 6 5 6 7 9 7 7 8 9 10 9 9 8 11 11 9 6 5 5 5 4 4 4 5 5 5 4 3 3 2 2 3 3 3 3 3 3 5 5 4 2 2 3 3 3 3 3 2 3 3 3 3
8 8 9 7 7 6 8 8 8 9 8 7 7 9 9 10 11 7 5 4 4 4 4 3 3 3 3 3 3 2 2 2 2 2 3 2 2 2 3 3 3 5 3 2 2 2 3 3 3 2 2 4 4 2
8 7 7 8 8 7 8 8 8 7 6 7 9 10 9 6 5 5 4 4 3 4 4 5 4 3 4 3 3 3 3 3 4 5 5 5 4 4 3 3 3 4 4 4 6 4 4 4 5 5 4 3 2 3
8 6 8 8 9 9 7 6 7 5 5 5 5 6 6 5 4 3 4 4 4 5 4 4 4 4 4 5 5 4 2 2 2 3 4 4 4 2 2 1 3 3 4 4 4 4 7 6 5 4 3 3 3 4
6 6 7 8 8 7 6 5 4 4 5 6 5 6 7 5 4 3 2 3 3 3 3 4 5 4 4 4 4 4 4 3 3 3 3 3 3 2 2 2 2 3 3 3 3 4 4 4 3 3 3 3 3 4
8 8 9 9 8 6 5 6 6 7 6 6 7 5 5 6 7 4 2 2 3 4 4 4 3 3 2 2 1 2 5 3 2 2 2 2 3 3 3 3 2 2 2 3 3 3 2 3 4 3 3 3 3 3
7 7 7 8 8 8 6 6 7 7 7 7 7 6 6 6 7 4 2 2 2 2 3 2 2 1 1 1 1 1 3 2 5 8 8 7 7 7 5 3 3 2 3 3 3 2 2 2 4 4 4 3 3 3